When you browse on this site, cookies collect data to enhance your experience and personalize the content and advertising you see.
Visit our Privacy Policy to learn more. By continuing to use the site, you agree to this use of cookies and data.
  • en France
  • Liste des pays
  • À 7 jours
  • Température de l'eau
  • Carte satellitaire
  • Carte météo
  • Widgets météo
  • user-avatar
    Se connecter

    Météo par heure à Biskra

    Ce jour, 20 Novembre, Mardi

    Heure Température Précipitation Vent Pression Humidité
    00:00 +16°C° 0 mm 2 m/s 744 mmHg 70%
    01:00 +16°C° 0 mm 2 m/s 744 mmHg 69%
    02:00 +15°C° 0 mm 2 m/s 744 mmHg 68%
    03:00 +15°C° 0 mm 2 m/s 744 mmHg 67%
    04:00 +15°C° 0 mm 2 m/s 744 mmHg 67%
    05:00 +15°C° 0 mm 2 m/s 745 mmHg 67%
    06:00 +14°C° 0 mm 3 m/s 745 mmHg 67%
    07:00 +14°C° 0 mm 3 m/s 746 mmHg 63%
    08:00 +15°C° 0 mm 4 m/s 746 mmHg 60%
    09:00 +17°C° 0 mm 4 m/s 747 mmHg 57%
    10:00 +18°C° 0 mm 4 m/s 747 mmHg 53%
    11:00 +19°C° 0 mm 4 m/s 747 mmHg 50%
    12:00 +20°C° 0 mm 4 m/s 748 mmHg 47%
    13:00 +20°C° 0 mm 4 m/s 748 mmHg 44%
    14:00 +21°C° 0 mm 3 m/s 748 mmHg 40%
    15:00 +21°C° 0 mm 3 m/s 748 mmHg 37%
    16:00 +20°C° 0 mm 3 m/s 748 mmHg 40%
    17:00 +19°C° 0 mm 2 m/s 749 mmHg 43%
    18:00 +19°C° 0 mm 2 m/s 749 mmHg 45%
    19:00 +18°C° 0 mm 2 m/s 750 mmHg 47%
    20:00 +18°C° 0 mm 2 m/s 750 mmHg 48%
    21:00 +17°C° 0 mm 2 m/s 751 mmHg 50%
    22:00 +17°C° 0 mm 2 m/s 751 mmHg 51%
    23:00 +17°C° 0 mm 2 m/s 751 mmHg 52%

    Demain, 21 Novembre, Mercredi

    Heure Température Précipitation Vent Pression Humidité
    00:00 +16°C° 0 mm 2 m/s 752 mmHg 52%
    01:00 +16°C° 0 mm 1 m/s 752 mmHg 53%
    02:00 +16°C° 0 mm 1 m/s 752 mmHg 54%
    03:00 +15°C° 0 mm 1 m/s 752 mmHg 55%
    04:00 +15°C° 0 mm 1 m/s 752 mmHg 56%
    05:00 +15°C° 0 mm 1 m/s 753 mmHg 57%
    06:00 +15°C° 0 mm 1 m/s 753 mmHg 57%
    07:00 +16°C° 0 mm 1 m/s 754 mmHg 52%
    08:00 +19°C° 0 mm 1 m/s 754 mmHg 47%
    09:00 +20°C° 0 mm 1 m/s 754 mmHg 42%
    10:00 +21°C° 0 mm 1 m/s 754 mmHg 40%
    11:00 +22°C° 0 mm 1 m/s 754 mmHg 37%
    12:00 +22°C° 0 mm 1 m/s 754 mmHg 35%
    13:00 +23°C° 0 mm 1 m/s 754 mmHg 34%
    14:00 +23°C° 0 mm 1 m/s 754 mmHg 33%
    15:00 +23°C° 0 mm 2 m/s 754 mmHg 32%
    16:00 +22°C° 0 mm 1 m/s 754 mmHg 36%
    17:00 +21°C° 0 mm 1 m/s 755 mmHg 39%
    18:00 +20°C° 0 mm 1 m/s 755 mmHg 43%
    19:00 +19°C° 0 mm 1 m/s 755 mmHg 43%
    20:00 +19°C° 0 mm 1 m/s 756 mmHg 43%
    21:00 +19°C° 0 mm 1 m/s 756 mmHg 43%
    22:00 +18°C° 0 mm 1 m/s 756 mmHg 45%
    23:00 +18°C° 0 mm 1 m/s 756 mmHg 46%

    Après-demain, 22 Novembre, Jeudi

    Heure Température Précipitation Vent Pression Humidité
    00:00 +18°C° 0 mm 1 m/s 756 mmHg 47%
    01:00 +18°C° 0 mm 1 m/s 756 mmHg 48%
    02:00 +16°C° 0 mm 1 m/s 756 mmHg 48%
    03:00 +16°C° 0 mm 1 m/s 756 mmHg 48%
    04:00 +16°C° 0 mm 1 m/s 756 mmHg 48%
    05:00 +16°C° 0 mm 2 m/s 756 mmHg 48%
    06:00 +16°C° 0 mm 2 m/s 756 mmHg 47%
    07:00 +17°C° 0 mm 2 m/s 756 mmHg 44%
    08:00 +19°C° 0 mm 2 m/s 756 mmHg 40%
    09:00 +20°C° 0 mm 2 m/s 757 mmHg 37%
    10:00 +21°C° 0 mm 2 m/s 756 mmHg 35%
    11:00 +21°C° 0 mm 2 m/s 756 mmHg 33%
    12:00 +22°C° 0 mm 3 m/s 756 mmHg 31%
    13:00 +22°C° 0 mm 3 m/s 755 mmHg 31%
    14:00 +22°C° 0 mm 3 m/s 755 mmHg 31%
    15:00 +22°C° 0 mm 3 m/s 755 mmHg 31%
    16:00 +21°C° 0 mm 3 m/s 755 mmHg 34%
    17:00 +20°C° 0 mm 2 m/s 755 mmHg 37%
    18:00 +19°C° 0 mm 2 m/s 756 mmHg 40%
    19:00 +19°C° 0 mm 2 m/s 756 mmHg 41%
    20:00 +18°C° 0 mm 2 m/s 756 mmHg 42%
    21:00 +18°C° 0 mm 2 m/s 757 mmHg 43%
    22:00 +17°C° 0 mm 2 m/s 757 mmHg 44%
    23:00 +17°C° 0 mm 2 m/s 757 mmHg 44%

    23 Novembre, Vendredi

    Heure Température Précipitation Vent Pression Humidité
    00:00 +17°C° 0 mm 2 m/s 757 mmHg 45%
    01:00 +16°C° 0 mm 1 m/s 756 mmHg 46%
    02:00 +16°C° 0 mm 1 m/s 756 mmHg 47%
    03:00 +15°C° 0 mm 1 m/s 756 mmHg 47%
    04:00 +15°C° 0 mm 1 m/s 756 mmHg 48%
    05:00 +15°C° 0 mm 1 m/s 756 mmHg 48%
    06:00 +14°C° 0 mm 1 m/s 756 mmHg 48%
    07:00 +16°C° 0 mm 1 m/s 756 mmHg 44%
    08:00 +18°C° 0 mm 1 m/s 756 mmHg 39%
    09:00 +19°C° 0 mm 2 m/s 757 mmHg 35%
    10:00 +20°C° 0 mm 2 m/s 756 mmHg 34%
    11:00 +20°C° 0 mm 2 m/s 756 mmHg 32%
    12:00 +21°C° 0 mm 3 m/s 755 mmHg 31%
    13:00 +21°C° 0 mm 3 m/s 755 mmHg 31%
    14:00 +21°C° 0 mm 3 m/s 755 mmHg 31%
    15:00 +21°C° 0 mm 2 m/s 754 mmHg 31%
    16:00 +21°C° 0 mm 2 m/s 754 mmHg 34%
    17:00 +20°C° 0 mm 2 m/s 754 mmHg 37%
    18:00 +19°C° 0 mm 2 m/s 755 mmHg 39%
    19:00 +18°C° 0 mm 2 m/s 755 mmHg 40%
    20:00 +18°C° 0 mm 2 m/s 755 mmHg 41%
    21:00 +18°C° 0 mm 2 m/s 756 mmHg 41%
    22:00 +18°C° 0 mm 1 m/s 755 mmHg 43%
    23:00 +18°C° 0 mm 1 m/s 755 mmHg 44%

    24 Novembre, Samedi

    Heure Température Précipitation Vent Pression Humidité
    00:00 +18°C° 0 mm 1 m/s 755 mmHg 46%
    01:00 +16°C° 0 mm 1 m/s 755 mmHg 46%
    02:00 +16°C° 0 mm 1 m/s 755 mmHg 47%
    03:00 +15°C° 0 mm 0 m/s 754 mmHg 48%
    04:00 +16°C° 0 mm 1 m/s 754 mmHg 48%
    05:00 +16°C° 0 mm 1 m/s 755 mmHg 49%
    06:00 +15°C° 0 mm 1 m/s 755 mmHg 49%
    07:00 +18°C° 0 mm 1 m/s 755 mmHg 45%
    08:00 +19°C° 0 mm 1 m/s 755 mmHg 41%
    09:00 +21°C° 0 mm 1 m/s 756 mmHg 38%
    10:00 +21°C° 0 mm 1 m/s 755 mmHg 36%
    11:00 +22°C° 0 mm 1 m/s 755 mmHg 35%
    12:00 +23°C° 0 mm 1 m/s 754 mmHg 33%
    13:00 +23°C° 0 mm 1 m/s 754 mmHg 33%
    14:00 +23°C° 0 mm 1 m/s 754 mmHg 33%
    15:00 +21°C° 0 mm 0 m/s 753 mmHg 33%
    16:00 +22°C° 0 mm 1 m/s 754 mmHg 36%
    17:00 +22°C° 0 mm 1 m/s 754 mmHg 39%
    18:00 +21°C° 0 mm 1 m/s 754 mmHg 43%
    19:00 +21°C° 0 mm 1 m/s 754 mmHg 43%
    20:00 +21°C° 0 mm 1 m/s 754 mmHg 44%
    21:00 +20°C° 0 mm 1 m/s 754 mmHg 45%
    22:00 +20°C° 0 mm 1 m/s 754 mmHg 46%
    23:00 +20°C° 0 mm 1 m/s 754 mmHg 48%

    25 Novembre, Dimanche

    Heure Température Précipitation Vent Pression Humidité
    00:00 +20°C° 0 mm 1 m/s 754 mmHg 49%
    01:00 +19°C° 0 mm 1 m/s 753 mmHg 51%
    02:00 +19°C° 0 mm 1 m/s 753 mmHg 53%
    03:00 +19°C° 0 mm 1 m/s 753 mmHg 55%
    04:00 +17°C° 0 mm 0 m/s 752 mmHg 56%
    05:00 +16°C° 0 mm 0 m/s 752 mmHg 57%
    06:00 +16°C° 0 mm 0 m/s 752 mmHg 57%
    07:00 +19°C° 0.1 mm 1 m/s 753 mmHg 56%
    08:00 +19°C° 0.1 mm 1 m/s 753 mmHg 54%
    09:00 +19°C° 0.1 mm 2 m/s 753 mmHg 52%
    10:00 +20°C° 0 mm 2 m/s 752 mmHg 51%
    11:00 +20°C° 0 mm 2 m/s 752 mmHg 49%
    12:00 +22°C° 0 mm 1 m/s 751 mmHg 48%
    13:00 +20°C° 0.2 mm 2 m/s 751 mmHg 50%
    14:00 +20°C° 0.2 mm 2 m/s 751 mmHg 52%
    15:00 +20°C° 0.2 mm 2 m/s 750 mmHg 55%
    16:00 +19°C° 1.2 mm 2 m/s 751 mmHg 62%
    17:00 +18°C° 1.2 mm 2 m/s 751 mmHg 69%
    18:00 +17°C° 1.2 mm 2 m/s 751 mmHg 76%
    19:00 +17°C° 0.3 mm 2 m/s 752 mmHg 76%
    20:00 +17°C° 0.3 mm 2 m/s 752 mmHg 75%
    21:00 +17°C° 0.3 mm 3 m/s 752 mmHg 75%
    22:00 +17°C° 0 mm 3 m/s 752 mmHg 74%
    23:00 +17°C° 0 mm 4 m/s 751 mmHg 74%
    Voir plus